Weather History for Modesto, CA

Change the Weather History Date:

Tuesday, February 26, 2013

  Actual Average Record
Temperature  
Mean Temperature 53 °F -  
Max Temperature 65 °F 66 °F 79 °F (1992)
Min Temperature 40 °F 45 °F 28 °F (1962)
Degree Days  
Heating Degree Days 12 10  
Month to date heating degree days 407 317  
Since 1 July heating degree days 1889 1749  
Cooling Degree Days 0 0  
Month to date cooling degree days 0 0  
Year to date cooling degree days 0 0  
Growing Degree Days 2 (Base 50)    
Moisture  
Dew Point 31 °F    
Average Humidity 52    
Maximum Humidity 82    
Minimum Humidity 21    
Precipitation  
Precipitation 0.00 in 0.08 in 0.45 in (1951)
Month to date precipitation 0.32 2.22  
Year to date precipitation 1.59 4.83  
Since 1 July precipitation 7.47 9.19  
Snow  
Snow 0.00 in - - ()
Month to date snowfall 0.0  
Since 1 July snowfall 0.0  
Snow Depth -    
Sea Level Pressure  
Sea Level Pressure 30.16 in    
Wind  
Wind Speed 9 mph (NW)    
Max Wind Speed 22 mph    
Max Gust Speed 28 mph    
Visibility 10 miles    
Events      
T = Trace of Precipitation, MM = Missing Value Source: NWS Daily Summary

Daily Weather History Graph

Daily Weather History Graph

Search for Another Location

Airport:

Trip Planner

Search our weather history database for the weather conditions in past years. The results will help you decide how hot, cold, wet, or windy it might be!

Date:

Astronomy

Feb. 26, 2013 Rise Set
Actual Time 6:38 AM PST 5:54 PM PST
Civil Twilight 6:12 AM PST 6:21 PM PST
Nautical Twilight 5:42 AM PST 6:51 PM PST
Astronomical Twilight 5:11 AM PST 7:22 PM PST
Moon 7:14 PM PST (2/26) 6:46 AM PST (2/26)
Length of Visible Light 12h 08m
Length of Day
11h 16m
Full, 99% of the Moon is Illuminated
Feb 26
Full
Mar 4
Last Quarter
Mar 11
New
Mar 19
First Quarter
Mar 27
Full

Hourly Weather History & Observations

Time (PST) Temp. Windchill Dew Point Humidity Pressure Visibility Wind Dir Wind Speed Gust Speed Precip Events Conditions
12:53 AM 45.0 °F 41.8 °F 35.1 °F 68% 30.17 in 10.0 mi NNW 5.8 mph - N/A   Clear
1:53 AM 44.1 °F 39.0 °F 37.0 °F 76% 30.17 in 10.0 mi NNW 9.2 mph - N/A   Clear
2:53 AM 43.0 °F 38.2 °F 37.0 °F 80% 30.16 in 10.0 mi NNW 8.1 mph - N/A   Clear
3:53 AM 41.0 °F 35.2 °F 36.0 °F 82% 30.15 in 10.0 mi WNW 9.2 mph - N/A   Clear
4:53 AM 43.0 °F 36.4 °F 37.0 °F 80% 30.15 in 10.0 mi NW 12.7 mph - N/A   Clear
5:53 AM 41.0 °F 34.7 °F 33.1 °F 73% 30.16 in 10.0 mi NW 10.4 mph - N/A   Clear
6:53 AM 41.0 °F 33.5 °F 30.9 °F 67% 30.18 in 10.0 mi WNW 13.8 mph - N/A   Clear
7:53 AM 44.1 °F 37.1 °F 28.9 °F 55% 30.19 in 10.0 mi WNW 15.0 mph - N/A   Clear
8:53 AM 46.9 °F - 30.0 °F 52% 30.21 in 10.0 mi WNW 13.8 mph - N/A   Clear
9:53 AM 51.1 °F - 28.9 °F 43% 30.19 in 10.0 mi NW 13.8 mph - N/A   Clear
10:53 AM 55.9 °F - 30.9 °F 39% 30.19 in 10.0 mi NW 15.0 mph - N/A   Clear
11:53 AM 60.1 °F - 28.0 °F 30% 30.17 in 10.0 mi NW 12.7 mph - N/A   Clear
12:53 PM 62.1 °F - 23.0 °F 22% 30.16 in 10.0 mi NNW 17.3 mph 26.5 mph N/A   Clear
1:53 PM 64.0 °F - 24.1 °F 22% 30.13 in 10.0 mi NW 16.1 mph 23.0 mph N/A   Clear
2:53 PM 64.0 °F - 27.0 °F 25% 30.13 in 10.0 mi NW 12.7 mph - N/A   Clear
3:53 PM 64.9 °F - 26.1 °F 23% 30.12 in 10.0 mi NNW 9.2 mph - N/A   Clear
4:53 PM 64.0 °F - 25.0 °F 23% 30.12 in 10.0 mi NW 9.2 mph - N/A   Clear
5:53 PM 59.0 °F - 25.0 °F 27% 30.12 in 10.0 mi NW 5.8 mph - N/A   Clear
6:53 PM 57.9 °F - 27.0 °F 31% 30.14 in 10.0 mi WNW 3.5 mph - N/A   Clear
7:53 PM 50.0 °F - 35.1 °F 57% 30.15 in 10.0 mi Calm Calm - N/A   Clear
8:53 PM 48.9 °F - 32.0 °F 52% 30.17 in 10.0 mi Calm Calm - N/A   Clear
9:53 PM 45.0 °F 43.5 °F 32.0 °F 60% 30.17 in 10.0 mi ESE 3.5 mph - N/A   Clear
10:53 PM 41.0 °F 39.0 °F 33.1 °F 73% 30.18 in 10.0 mi East 3.5 mph - N/A   Clear
11:53 PM 41.0 °F - 30.9 °F 67% 30.20 in 10.0 mi Calm Calm - N/A   Clear